MDT,Max TemperatureF,Mean TemperatureF,Min TemperatureF,Max Dew PointF,MeanDew PointF,Min DewpointF,Max Humidity, Mean Humidity, Min Humidity, Max Sea Level PressureIn, Mean Sea Level PressureIn, Min Sea Level PressureIn, Max VisibilityMiles, Mean VisibilityMiles, Min VisibilityMiles, Max Wind SpeedMPH, Mean Wind SpeedMPH, Max Gust SpeedMPH,PrecipitationIn, CloudCover, Events, WindDirDegrees
2013-10-1,52,40,27,33,29,24,92,67,41,30.07,30.00,29.94,10,10,10,15,5,21,T,6,,246
2013-10-2,49,40,30,34,29,25,92,67,42,30.18,30.04,29.93,10,10,6,14,3,22,0.03,4,Rain,259
2013-10-3,37,34,30,34,28,23,100,82,64,30.41,30.05,29.87,10,5,0,22,11,31,0.03,8,Fog-Rain-Snow,343
2013-10-4,42,34,25,27,25,22,92,69,46,30.56,30.47,30.32,10,9,2,10,3,14,T,5,Snow,294
2013-10-5,55,38,20,33,24,17,92,62,32,30.54,30.47,30.39,10,10,10,9,3,13,0.00,0,,81
2013-10-6,64,45,26,34,29,24,92,58,23,30.43,30.29,30.13,10,10,10,10,3,13,0.00,0,,155
2013-10-7,67,47,27,32,26,19,92,54,16,30.09,29.91,29.76,10,10,10,21,5,30,0.00,0,,256
2013-10-8,47,38,29,30,25,19,85,60,34,30.00,29.87,29.79,10,10,10,16,5,23,0.00,3,,323
2013-10-9,52,39,25,28,27,23,92,65,38,30.12,29.99,29.90,10,10,10,20,6,23,0.00,2,,158
2013-10-10,51,38,24,32,26,21,92,65,37,29.90,29.84,29.77,10,10,10,17,5,21,0.00,3,,310
2013-10-11,49,37,24,29,22,15,75,51,26,30.12,30.01,29.88,10,10,10,17,6,23,0.00,4,,301
2013-10-12,47,34,21,26,23,18,88,65,41,30.16,30.11,30.06,10,10,10,12,2,14,0.00,3,,162
2013-10-13,45,35,24,33,27,22,92,75,57,30.23,30.17,30.12,10,10,10,18,4,25,T,5,,356
2013-10-14,42,34,26,34,30,27,96,83,70,30.46,30.33,30.23,10,8,2,13,3,14,0.11,7,Rain-Snow,197
2013-10-15,49,33,16,28,22,14,96,65,34,30.53,30.40,30.26,10,10,10,7,2,9,0.00,0,,148
2013-10-16,47,33,19,30,23,16,88,65,41,30.25,30.22,30.15,10,10,10,16,3,21,0.00,5,,303
2013-10-17,43,37,30,34,29,23,100,73,45,30.32,30.21,30.14,10,10,6,20,5,24,T,8,Rain-Snow,328
2013-10-18,52,38,23,28,24,20,88,58,28,30.36,30.26,30.14,10,10,10,10,2,14,T,2,,299
2013-10-19,58,40,21,26,22,18,88,57,25,30.21,30.10,30.01,10,10,10,22,5,30,0.00,1,,309
2013-10-20,54,41,28,29,27,22,85,59,32,30.22,30.09,30.01,10,10,10,16,5,21,0.00,5,,328
2013-10-21,59,41,22,32,27,20,92,64,35,30.32,30.25,30.17,10,10,10,9,2,12,0.00,0,,167
2013-10-22,64,43,21,32,26,20,92,55,18,30.34,30.25,30.14,10,10,10,12,2,16,0.00,0,,62
2013-10-23,61,41,21,27,23,18,88,54,19,30.34,30.24,30.17,10,10,7,9,2,10,0.00,0,,169
2013-10-24,64,43,22,30,25,20,88,55,21,30.35,30.23,30.12,10,10,3,7,2,8,0.00,0,,128
2013-10-25,62,42,21,28,23,18,88,54,20,30.42,30.30,30.20,10,10,10,10,3,14,0.00,0,,178
2013-10-26,63,42,20,26,22,16,84,52,20,30.46,30.32,30.19,10,10,10,12,3,15,0.00,0,,121
2013-10-27,59,39,19,25,21,16,88,55,21,30.14,29.96,29.77,10,10,10,24,6,30,T,2,,24
2013-10-28,29,22,15,23,17,10,92,81,69,30.22,30.07,29.99,10,4,0,17,3,22,0.44,8,Fog-Snow,313
2013-10-29,33,20,6,21,13,3,92,74,56,30.19,30.07,29.93,10,9,2,6,1,8,0.00,3,,175
2013-10-30,42,25,8,25,14,7,96,73,49,30.14,30.01,29.87,10,8,0,14,2,17,0.00,4,Fog,284
2013-10-31,41,35,29,32,28,23,96,78,59,30.11,30.02,29.96,10,10,9,17,6,24,0.01,8,Rain-Snow,326